• In Russia
  • List of Countries
  • For 7 days
  • Water Temperature
  • Weather Map
  • Weather Widgets
  • user-avatar
    Login

    Hourly Weather Sharan

    Today, 25 January, Saturday

    Time Temperature Precipitation Wind Pressure Humidity
    00:00 -3°C° 0 mm 1 mps 582 mmHg 97%
    01:00 -3°C° 0 mm 0 mps 582 mmHg 97%
    02:00 -3°C° 0 mm 0 mps 582 mmHg 96%
    03:00 -4°C° 0.1 mm 0 mps 582 mmHg 97%
    04:00 -5°C° 0.1 mm 0 mps 581 mmHg 97%
    05:00 -5°C° 0.1 mm 0 mps 581 mmHg 97%
    06:00 -5°C° 0 mm 0 mps 581 mmHg 97%
    07:00 -5°C° 0 mm 0 mps 582 mmHg 97%
    08:00 -5°C° 0 mm 0 mps 582 mmHg 97%
    09:00 -4°C° 0 mm 0 mps 583 mmHg 94%
    10:00 -3°C° 0 mm 0 mps 583 mmHg 92%
    11:00 -1°C° 0 mm 1 mps 584 mmHg 90%
    12:00 -1°C° 0 mm 1 mps 583 mmHg 89%
    13:00 0°C° 0 mm 1 mps 582 mmHg 88%
    14:00 0°C° 0 mm 1 mps 582 mmHg 88%
    15:00 -2°C° 0 mm 0 mps 581 mmHg 88%
    16:00 -3°C° 0 mm 0 mps 581 mmHg 89%
    17:00 -3°C° 0 mm 0 mps 581 mmHg 90%
    18:00 -5°C° 0 mm 0 mps 581 mmHg 91%
    19:00 -6°C° 0 mm 0 mps 581 mmHg 92%
    20:00 -7°C° 0 mm 0 mps 581 mmHg 93%
    21:00 -8°C° 0 mm 0 mps 581 mmHg 93%
    22:00 -8°C° 0 mm 0 mps 581 mmHg 93%
    23:00 -9°C° 0 mm 0 mps 581 mmHg 94%

    Tomorrow, 26 January, Sunday

    Time Temperature Precipitation Wind Pressure Humidity
    00:00 -9°C° 0 mm 0 mps 580 mmHg 94%
    01:00 -10°C° 0 mm 0 mps 580 mmHg 94%
    02:00 -10°C° 0 mm 1 mps 579 mmHg 95%
    03:00 -10°C° 0 mm 0 mps 579 mmHg 95%
    04:00 -11°C° 0 mm 0 mps 579 mmHg 95%
    05:00 -11°C° 0 mm 0 mps 579 mmHg 95%
    06:00 -11°C° 0 mm 0 mps 579 mmHg 94%
    07:00 -11°C° 0 mm 1 mps 579 mmHg 94%
    08:00 -11°C° 0 mm 1 mps 579 mmHg 94%
    09:00 -9°C° 0 mm 1 mps 580 mmHg 91%
    10:00 -7°C° 0 mm 1 mps 581 mmHg 88%
    11:00 -6°C° 0 mm 1 mps 581 mmHg 85%
    12:00 -4°C° 0 mm 1 mps 581 mmHg 83%
    13:00 -4°C° 0 mm 0 mps 580 mmHg 81%
    14:00 -4°C° 0 mm 0 mps 580 mmHg 79%
    15:00 -5°C° 0 mm 0 mps 579 mmHg 79%
    16:00 -6°C° 0 mm 0 mps 578 mmHg 78%
    17:00 -7°C° 0 mm 0 mps 578 mmHg 77%
    18:00 -8°C° 0 mm 0 mps 578 mmHg 75%
    19:00 -9°C° 0 mm 0 mps 578 mmHg 73%
    20:00 -9°C° 0 mm 0 mps 578 mmHg 70%
    21:00 -9°C° 0 mm 1 mps 578 mmHg 68%
    22:00 -9°C° 0 mm 1 mps 578 mmHg 67%
    23:00 -10°C° 0 mm 1 mps 578 mmHg 65%

    Day after tomorrow, 27 January, Monday

    Time Temperature Precipitation Wind Pressure Humidity
    00:00 -9°C° 0 mm 1 mps 578 mmHg 64%
    01:00 -9°C° 0 mm 1 mps 578 mmHg 64%
    02:00 -10°C° 0 mm 2 mps 578 mmHg 63%
    03:00 -9°C° 0 mm 2 mps 578 mmHg 64%
    04:00 -9°C° 0 mm 2 mps 578 mmHg 64%
    05:00 -9°C° 0 mm 2 mps 578 mmHg 64%
    06:00 -9°C° 0 mm 2 mps 578 mmHg 66%
    07:00 -9°C° 0 mm 2 mps 578 mmHg 67%
    08:00 -8°C° 0 mm 2 mps 579 mmHg 69%
    09:00 -7°C° 0.1 mm 2 mps 579 mmHg 71%
    10:00 -6°C° 0.1 mm 2 mps 580 mmHg 72%
    11:00 -4°C° 0.1 mm 2 mps 581 mmHg 74%
    12:00 -4°C° 0.2 mm 2 mps 580 mmHg 76%
    13:00 -2°C° 0.2 mm 1 mps 579 mmHg 78%
    14:00 -1°C° 0.2 mm 1 mps 579 mmHg 80%
    15:00 -1°C° 0.2 mm 1 mps 579 mmHg 81%
    16:00 -2°C° 0.2 mm 1 mps 579 mmHg 81%
    17:00 -2°C° 0.2 mm 1 mps 579 mmHg 82%
    18:00 -5°C° 0 mm 2 mps 579 mmHg 79%
    19:00 -6°C° 0 mm 2 mps 579 mmHg 77%
    20:00 -7°C° 0 mm 2 mps 579 mmHg 75%
    21:00 -7°C° 0 mm 2 mps 579 mmHg 74%
    22:00 -8°C° 0 mm 2 mps 579 mmHg 73%
    23:00 -7°C° 0 mm 1 mps 579 mmHg 72%

    28 January, Tuesday

    Time Temperature Precipitation Wind Pressure Humidity
    00:00 -8°C° 0 mm 1 mps 579 mmHg 71%
    01:00 -9°C° 0 mm 1 mps 578 mmHg 70%
    02:00 -10°C° 0 mm 1 mps 578 mmHg 70%
    03:00 -12°C° 0 mm 2 mps 578 mmHg 69%
    04:00 -12°C° 0 mm 2 mps 577 mmHg 68%
    05:00 -13°C° 0 mm 2 mps 577 mmHg 67%
    06:00 -13°C° 0 mm 2 mps 577 mmHg 66%
    07:00 -14°C° 0 mm 2 mps 577 mmHg 65%
    08:00 -14°C° 0 mm 2 mps 577 mmHg 64%
    09:00 -12°C° 0 mm 2 mps 578 mmHg 64%
    10:00 -10°C° 0 mm 2 mps 578 mmHg 64%
    11:00 -8°C° 0 mm 2 mps 579 mmHg 65%
    12:00 -7°C° 0 mm 1 mps 578 mmHg 64%
    13:00 -6°C° 0 mm 1 mps 578 mmHg 63%
    14:00 -4°C° 0 mm 1 mps 578 mmHg 62%
    15:00 -6°C° 0 mm 1 mps 577 mmHg 62%
    16:00 -8°C° 0 mm 1 mps 577 mmHg 62%
    17:00 -9°C° 0 mm 1 mps 576 mmHg 61%
    18:00 -10°C° 0 mm 1 mps 576 mmHg 61%
    19:00 -11°C° 0 mm 0 mps 576 mmHg 61%
    20:00 -12°C° 0 mm 0 mps 576 mmHg 62%
    21:00 -13°C° 0 mm 0 mps 577 mmHg 63%
    22:00 -13°C° 0 mm 0 mps 577 mmHg 64%
    23:00 -13°C° 0 mm 0 mps 577 mmHg 65%

    29 January, Wednesday

    Time Temperature Precipitation Wind Pressure Humidity
    00:00 -14°C° 0 mm 0 mps 576 mmHg 66%
    01:00 -14°C° 0 mm 0 mps 576 mmHg 67%
    02:00 -14°C° 0 mm 0 mps 576 mmHg 67%
    03:00 -15°C° 0 mm 0 mps 576 mmHg 67%
    04:00 -15°C° 0 mm 0 mps 576 mmHg 66%
    05:00 -15°C° 0 mm 1 mps 576 mmHg 66%
    06:00 -15°C° 0 mm 1 mps 576 mmHg 65%
    07:00 -15°C° 0 mm 1 mps 576 mmHg 64%
    08:00 -15°C° 0 mm 1 mps 577 mmHg 63%
    09:00 -13°C° 0 mm 1 mps 578 mmHg 62%
    10:00 -11°C° 0 mm 1 mps 579 mmHg 62%
    11:00 -9°C° 0 mm 0 mps 579 mmHg 62%
    12:00 -8°C° 0 mm 0 mps 579 mmHg 62%
    13:00 -8°C° 0 mm 0 mps 579 mmHg 62%
    14:00 -7°C° 0 mm 0 mps 579 mmHg 62%
    15:00 -8°C° 0 mm 0 mps 578 mmHg 64%
    16:00 -10°C° 0 mm 0 mps 578 mmHg 65%
    17:00 -11°C° 0 mm 0 mps 578 mmHg 67%
    18:00 -12°C° 0 mm 0 mps 578 mmHg 66%
    19:00 -13°C° 0 mm 0 mps 578 mmHg 66%
    20:00 -14°C° 0 mm 0 mps 578 mmHg 65%
    21:00 -14°C° 0 mm 0 mps 578 mmHg 65%
    22:00 -14°C° 0 mm 0 mps 579 mmHg 65%
    23:00 -14°C° 0 mm 1 mps 579 mmHg 65%

    30 January, Thursday

    Time Temperature Precipitation Wind Pressure Humidity
    00:00 -14°C° 0 mm 1 mps 579 mmHg 66%
    01:00 -14°C° 0 mm 1 mps 579 mmHg 67%
    02:00 -14°C° 0 mm 1 mps 579 mmHg 68%
    03:00 -14°C° 0 mm 1 mps 579 mmHg 68%
    04:00 -14°C° 0 mm 1 mps 579 mmHg 67%
    05:00 -14°C° 0 mm 1 mps 579 mmHg 67%
    06:00 -14°C° 0 mm 1 mps 579 mmHg 66%
    07:00 -14°C° 0 mm 1 mps 580 mmHg 64%
    08:00 -14°C° 0 mm 1 mps 580 mmHg 63%
    09:00 -12°C° 0 mm 1 mps 581 mmHg 63%
    10:00 -10°C° 0 mm 1 mps 582 mmHg 63%
    11:00 -7°C° 0 mm 1 mps 582 mmHg 63%
    12:00 -7°C° 0 mm 1 mps 582 mmHg 64%
    13:00 -6°C° 0 mm 0 mps 582 mmHg 65%
    14:00 -5°C° 0 mm 0 mps 581 mmHg 66%
    15:00 -6°C° 0 mm 0 mps 581 mmHg 65%
    16:00 -7°C° 0 mm 0 mps 580 mmHg 65%
    17:00 -8°C° 0 mm 0 mps 580 mmHg 64%
    18:00 -9°C° 0 mm 0 mps 580 mmHg 65%
    19:00 -9°C° 0 mm 0 mps 580 mmHg 65%
    20:00 -10°C° 0 mm 0 mps 580 mmHg 65%
    21:00 -10°C° 0 mm 1 mps 580 mmHg 67%
    22:00 -11°C° 0 mm 1 mps 580 mmHg 68%
    23:00 -11°C° 0 mm 1 mps 580 mmHg 70%
    Show more